Flag for Canada Weather past 2 weeks in Toronto, Ontario, Canada

Now
70 °F

Passing clouds.


Feels Like: 70 °F
Forecast: N/A
Wind: 6 mph from Southeast

Location: Toronto Pearson International Airport

Current Time: May 6, 2015 at 6:39:10 PM

Latest Report: May 6, 2015 at 5:00 PM


Visibility: 15 mi

Pressure: 30.21 "Hg

Humidity: 33%

Dew point: 39 °F

Location of TorontoLocation

Historic Weather in Toronto — Graph

°F

Toronto temperature yesterday

Maximum temperature yesterday: 61 °F (at 2:00 PM)
Minimum temperature yesterday: 45 °F (at 6:00 AM)
Average temperature yesterday: 55 °F

Past Weeks' High & Low Weather Summary

 TemperatureHumidityPressure
High77 °F (May 3, 6:00 PM)87% (Apr 21, 9:00 PM)30.32 "Hg (Apr 21, 9:00 PM)
Low27 °F (Apr 25, 6:00 AM)27% (May 3, 8:00 PM)29.56 "Hg (Apr 21, 5:00 PM)
Average51 °F58%29.94 "Hg
* Reported Apr 21 5:00 PM — May 6 5:00 PM, Toronto, Weather by CustomWeather, © 2015

Note: Actual official high and low records may vary slightly from our data, if they occured in-between our weather recording intervals... More about our weather records

Advertising

Toronto weather history for previous 24 hours

 ConditionsComfort  
Time TempWeatherWind HumidityBarometerVisibility
5:00 PM
Wed, May 6
70 °FPassing clouds.6 mph33%30.21 "Hg15 mi
4:00 PM72 °FPassing clouds.6 mph31%30.22 "Hg15 mi
3:00 PM70 °FPassing clouds.6 mph33%30.25 "Hg15 mi
2:00 PM70 °FScattered clouds.9 mph35%30.27 "Hg15 mi
1:00 PM70 °FBroken clouds.7 mph31%30.28 "Hg15 mi
12:00 PM68 °FPassing clouds.10 mph35%30.29 "Hg15 mi
11:00 AM64 °FPassing clouds.14 mph46%30.29 "Hg15 mi
10:00 AM64 °FPassing clouds.10 mph46%30.30 "Hg15 mi
9:00 AM59 °FScattered clouds.7 mph59%30.31 "Hg15 mi
8:00 AM52 °FPartly sunny.3 mph72%30.32 "Hg15 mi
7:00 AM50 °FPassing clouds.2 mph82%30.30 "Hg15 mi
6:00 AM46 °FPartly cloudy.2 mph82%30.29 "Hg15 mi
5:00 AM48 °FPassing clouds.3 mph76%30.28 "Hg15 mi
4:00 AM48 °FPassing clouds.5 mph76%30.28 "Hg15 mi
3:00 AM46 °FPassing clouds.6 mph87%30.29 "Hg15 mi
2:00 AM46 °FPassing clouds.3 mph82%30.30 "Hg15 mi
1:00 AM48 °FPassing clouds.3 mph58%30.30 "Hg15 mi
12:00 AM52 °FPassing clouds.2 mph50%30.30 "Hg15 mi
11:00 PM
Tue, May 5
54 °FPassing clouds.No wind47%30.30 "Hg15 mi
10:00 PM54 °FPartly cloudy.No wind41%30.30 "Hg15 mi
9:00 PM55 °FBroken clouds.5 mph41%30.28 "Hg15 mi
8:00 PM57 °FCloudy.5 mph36%30.27 "Hg15 mi
7:00 PM57 °FMostly cloudy.7 mph44%30.27 "Hg15 mi
6:00 PM57 °FOvercast.8 mph51%30.28 "Hg15 mi
Weather by CustomWeather, © 2015

See weather overviewHow to use our weather pages